QPF
0.00 0.00 0.00 0.00 0.00 0.00 0.01 0.01 0.01 0.01 0.00 0.00 0.00 0.00 0.01 0.00 0.00 0.01 0.01 0.02 0.01 0.01 0.01 0.01 0.01 0.01 0.01 0.01 0.01 0.01 0.02 0.02 0.02 0.01 0.00 0.00 0.00 0.01 0.01 0.01 0.01 0.01 0.01 0.02
0.00 0.00 0.00 0.00 0.00 0.00 0.01 0.01 0.01 0.01 0.01 0.00 0.01 0.01 0.01 0.01 0.00 0.00 0.01 0.01 0.01 0.01 0.01 0.00 0.00 0.01 0.01 0.01 0.01 0.01 0.02 0.02 0.02 0.01 0.01 0.01 0.01 0.01 0.01 0.01 0.01 0.02 0.01 0.01
0.00 0.00 0.00 0.00 0.00 0.00 0.01 0.01 0.01 0.01 0.01 0.00 0.00 0.01 0.01 0.01 0.01 0.01 0.01 0.01 0.01 0.01 0.00 0.00 0.01 0.01 0.01 0.01 0.01 0.01 0.01 0.01 0.01 0.01 0.01 0.02 0.02 0.02 0.02 0.01 0.02 0.02 0.01 0.01
0.00 0.00 0.00 0.00 0.00 0.00 0.01 0.00 0.01 0.01 0.01 0.01 0.00 0.01 0.01 0.02 0.05 0.02 0.01 0.01 0.01 0.00 0.00 0.00 0.01 0.01 0.01 0.01 0.01 0.01 0.01 0.01 0.01 0.01 0.01 0.02 0.02 0.02 0.02 0.01 0.02 0.01 0.01 0.01
0.01 0.01 0.00 0.00 0.00 0.00 0.01 0.00 0.01 0.01 0.01 0.00 0.00 0.02 0.02 0.02 0.03 0.02 0.01 0.00 0.01 0.00 0.00 0.01 0.01 0.01 0.01 0.01 0.01 0.01 0.01 0.01 0.01 0.01 0.01 0.02 0.02 0.02 0.02 0.01 0.02 0.01 0.01 0.01
0.01 0.01 0.01 0.00 0.00 0.00 0.00 0.00 0.01 0.01 0.00 0.00 0.00 0.01 0.01 0.02 0.01 0.01 0.01 0.00 0.01 0.01 0.00 0.01 0.01 0.01 0.01 0.01 0.01 0.01 0.02 0.02 0.01 0.01 0.02 0.03 0.03 0.02 0.02 0.01 0.02 0.01 0.01 0.02
0.01 0.01 0.01 0.01 0.00 0.00 0.00 0.00 0.01 0.01 0.01 0.01 0.01 0.01 0.03 0.03 0.01 0.01 0.01 0.01 0.01 0.01 0.00 0.00 0.01 0.01 0.02 0.02 0.02 0.02 0.02 0.02 0.01 0.01 0.02 0.02 0.02 0.02 0.01 0.01 0.02 0.01 0.01 0.02
0.00 0.01 0.01 0.01 0.00 0.00 0.00 0.00 0.01 0.02 0.02 0.02 0.02 0.03 0.03 0.02 0.01 0.01 0.01 0.01 0.02 0.02 0.01 0.01 0.01 0.01 0.01 0.02 0.02 0.02 0.03 0.02 0.02 0.01 0.01 0.02 0.02 0.02 0.01 0.01 0.02 0.02 0.02 0.02
0.00 0.00 0.00 0.00 0.00 0.00 0.00 0.00 0.01 0.01 0.01 0.01 0.02 0.02 0.01 0.01 0.01 0.01 0.01 0.01 0.02 0.02 0.02 0.02 0.01 0.00 0.01 0.01 0.02 0.03 0.04 0.05 0.04 0.02 0.01 0.02 0.02 0.03 0.02 0.01 0.02 0.02 0.02 0.02
0.00 0.00 0.00 0.00 0.00 0.00 0.00 0.00 0.01 0.01 0.02 0.02 0.02 0.02 0.02 0.01 0.01 0.00 0.00 0.00 0.01 0.02 0.03 0.03 0.02 0.01 0.01 0.01 0.01 0.03 0.05 0.09 0.06 0.04 0.02 0.03 0.03 0.04 0.04 0.02 0.02 0.02 0.01 0.02
0.00 0.00 0.01 0.01 0.01 0.01 0.01 0.01 0.02 0.02 0.02 0.03 0.02 0.02 0.01 0.01 0.01 0.00 0.00 0.00 0.01 0.02 0.02 0.02 0.02 0.01 0.01 0.01 0.01 0.03 0.04 0.07 0.07 0.04 0.04 0.03 0.03 0.04 0.04 0.04 0.02 0.01 0.01 0.02
0.00 0.00 0.00 0.01 0.01 0.01 0.01 0.01 0.01 0.02 0.03 0.02 0.02 0.02 0.01 0.01 0.01 0.01 0.01 0.01 0.01 0.02 0.03 0.02 0.02 0.02 0.02 0.02 0.02 0.02 0.03 0.05 0.07 0.08 0.05 0.04 0.04 0.04 0.03 0.02 0.02 0.02 0.01 0.01
0.00 0.00 0.00 0.00 0.01 0.01 0.01 0.02 0.02 0.02 0.03 0.03 0.02 0.01 0.01 0.01 0.01 0.01 0.02 0.02 0.01 0.02 0.03 0.02 0.02 0.02 0.02 0.02 0.02 0.02 0.02 0.04 0.05 0.08 0.10 0.07 0.04 0.03 0.02 0.02 0.03 0.03 0.02 0.01
0.00 0.00 0.01 0.01 0.00 0.01 0.01 0.01 0.01 0.02 0.03 0.02 0.02 0.01 0.01 0.01 0.01 0.01 0.02 0.02 0.01 0.02 0.02 0.03 0.03 0.03 0.02 0.02 0.02 0.02 0.02 0.03 0.04 0.06 0.09 0.08 0.05 0.03 0.02 0.03 0.02 0.03 0.02 0.02
0.00 0.00 0.00 0.00 0.00 0.00 0.00 0.01 0.01 0.02 0.02 0.02 0.01 0.00 0.00 0.00 0.01 0.01 0.01 0.01 0.01 0.02 0.02 0.03 0.05 0.04 0.03 0.02 0.03 0.03 0.03 0.04 0.04 0.04 0.05 0.06 0.06 0.04 0.02 0.03 0.03 0.03 0.03 0.03
0.00 0.01 0.00 0.00 0.00 0.00 0.00 0.00 0.01 0.01 0.01 0.01 0.01 0.01 0.00 0.00 0.00 0.01 0.01 0.01 0.01 0.01 0.01 0.01 0.02 0.03 0.03 0.03 0.02 0.02 0.03 0.03 0.03 0.03 0.03 0.04 0.05 0.03 0.03 0.03 0.03 0.04 0.04 0.04
0.00 0.00 0.00 0.00 0.00 0.00 0.01 0.01 0.02 0.03 0.01 0.00 0.01 0.01 0.01 0.01 0.01 0.02 0.02 0.01 0.01 0.01 0.01 0.01 0.01 0.02 0.02 0.03 0.03 0.03 0.03 0.04 0.03 0.02 0.02 0.03 0.05 0.03 0.03 0.04 0.03 0.02 0.03 0.04
0.00 0.00 0.00 0.00 0.01 0.01 0.02 0.01 0.01 0.02 0.02 0.02 0.01 0.01 0.01 0.02 0.03 0.03 0.02 0.02 0.02 0.01 0.01 0.01 0.01 0.01 0.01 0.02 0.03 0.04 0.04 0.03 0.03 0.02 0.02 0.02 0.03 0.03 0.03 0.05 0.04 0.03 0.03 0.04
0.00 0.00 0.01 0.01 0.01 0.01 0.01 0.01 0.01 0.01 0.01 0.02 0.01 0.01 0.01 0.02 0.02 0.02 0.01 0.01 0.01 0.01 0.01 0.00 0.00 0.01 0.01 0.01 0.02 0.03 0.02 0.02 0.03 0.03 0.03 0.02 0.02 0.02 0.02 0.02 0.03 0.03 0.04 0.04
0.01 0.02 0.02 0.02 0.02 0.01 0.01 0.01 0.01 0.01 0.01 0.01 0.02 0.01 0.01 0.02 0.02 0.01 0.01 0.01 0.01 0.01 0.01 0.01 0.00 0.00 0.01 0.01 0.02 0.02 0.02 0.02 0.03 0.03 0.03 0.02 0.02 0.01 0.02 0.02 0.02 0.03 0.04 0.03
0.01 0.02 0.02 0.02 0.02 0.01 0.01 0.01 0.01 0.02 0.02 0.02 0.02 0.02 0.02 0.02 0.01 0.01 0.01 0.01 0.01 0.01 0.01 0.01 0.01 0.00 0.00 0.02 0.02 0.02 0.02 0.02 0.02 0.03 0.04 0.04 0.03 0.02 0.02 0.02 0.02 0.02 0.03 0.03
0.02 0.01 0.01 0.02 0.02 0.01 0.00 0.01 0.02 0.02 0.03 0.02 0.02 0.02 0.02 0.02 0.01 0.01 0.01 0.01 0.01 0.01 0.01 0.01 0.00 0.00 0.00 0.01 0.02 0.02 0.03 0.02 0.02 0.03 0.04 0.05 0.04 0.04 0.03 0.02 0.02 0.03 0.02 0.02
0.02 0.02 0.02 0.02 0.01 0.01 0.01 0.01 0.01 0.02 0.03 0.04 0.04 0.03 0.03 0.02 0.01 0.02 0.02 0.02 0.01 0.01 0.01 0.01 0.00 0.00 0.00 0.01 0.02 0.02 0.03 0.02 0.02 0.04 0.05 0.04 0.04 0.05 0.04 0.03 0.03 0.02 0.02 0.01
0.02 0.01 0.02 0.02 0.01 0.01 0.01 0.01 0.01 0.02 0.03 0.02 0.03 0.03 0.03 0.02 0.02 0.02 0.02 0.02 0.02 0.01 0.01 0.00 0.00 0.00 0.00 0.02 0.02 0.03 0.02 0.02 0.02 0.04 0.05 0.04 0.03 0.03 0.03 0.03 0.04 0.03 0.02 0.01
0.02 0.02 0.02 0.01 0.01 0.01 0.01 0.01 0.02 0.03 0.02 0.02 0.01 0.02 0.03 0.02 0.02 0.03 0.03 0.02 0.02 0.01 0.01 0.00 0.00 0.00 0.01 0.02 0.02 0.02 0.02 0.02 0.03 0.04 0.04 0.04 0.03 0.02 0.02 0.03 0.03 0.03 0.03 0.02
0.03 0.02 0.02 0.02 0.01 0.01 0.01 0.01 0.01 0.02 0.02 0.02 0.01 0.01 0.02 0.02 0.02 0.03 0.03 0.02 0.01 0.01 0.01 0.00 0.00 0.01 0.01 0.01 0.02 0.02 0.02 0.03 0.04 0.04 0.04 0.04 0.05 0.04 0.03 0.03 0.04 0.05 0.05 0.06
MSLP
1014.85 1015.59 1016.15 1016.53 1016.75 1016.90 1017.03 1017.23 1017.52 1017.91 1018.35 1018.78 1019.13 1019.33 1019.33 1019.13 1018.76 1018.28 1017.77 1017.31 1016.92 1016.66 1016.51 1016.43 1016.40 1016.37 1016.30 1016.19 1016.05 1015.91 1015.80 1015.75 1015.76 1015.84 1015.95 1016.07 1016.15 1016.16 1016.10 1015.96 1015.78 1015.59 1015.45 1015.37
1015.35 1015.95 1016.36 1016.62 1016.77 1016.89 1017.06 1017.35 1017.78 1018.31 1018.90 1019.45 1019.88 1020.10 1020.08 1019.82 1019.37 1018.82 1018.24 1017.72 1017.31 1017.03 1016.87 1016.79 1016.75 1016.68 1016.57 1016.41 1016.22 1016.04 1015.90 1015.84 1015.87 1015.98 1016.14 1016.29 1016.39 1016.41 1016.33 1016.17 1015.95 1015.74 1015.58 1015.51
1015.66 1016.10 1016.36 1016.50 1016.58 1016.71 1016.95 1017.36 1017.94 1018.65 1019.39 1020.06 1020.56 1020.81 1020.77 1020.45 1019.93 1019.30 1018.66 1018.10 1017.66 1017.38 1017.22 1017.15 1017.09 1017.00 1016.86 1016.65 1016.42 1016.20 1016.05 1015.99 1016.04 1016.18 1016.36 1016.55 1016.68 1016.71 1016.63 1016.46 1016.23 1016.00 1015.83 1015.75
1015.81 1016.09 1016.22 1016.26 1016.31 1016.47 1016.80 1017.35 1018.11 1018.98 1019.87 1020.65 1021.20 1021.46 1021.39 1021.01 1020.42 1019.72 1019.02 1018.42 1017.97 1017.69 1017.54 1017.47 1017.42 1017.32 1017.16 1016.93 1016.67 1016.43 1016.25 1016.19 1016.25 1016.40 1016.62 1016.84 1016.99 1017.05 1016.99 1016.82 1016.59 1016.35 1016.17 1016.08
1015.87 1016.01 1016.03 1016.02 1016.07 1016.29 1016.74 1017.43 1018.34 1019.37 1020.37 1021.23 1021.82 1022.07 1021.95 1021.50 1020.84 1020.07 1019.32 1018.69 1018.23 1017.95 1017.82 1017.78 1017.74 1017.65 1017.49 1017.25 1016.97 1016.70 1016.51 1016.43 1016.48 1016.64 1016.88 1017.11 1017.30 1017.38 1017.34 1017.20 1016.98 1016.76 1016.57 1016.47
1015.90 1015.94 1015.90 1015.87 1015.96 1016.26 1016.83 1017.66 1018.71 1019.85 1020.94 1021.84 1022.43 1022.64 1022.46 1021.94 1021.19 1020.36 1019.56 1018.90 1018.44 1018.18 1018.07 1018.06 1018.05 1017.98 1017.83 1017.59 1017.29 1017.01 1016.79 1016.69 1016.72 1016.87 1017.10 1017.34 1017.55 1017.66 1017.65 1017.54 1017.35 1017.15 1016.97 1016.86
1015.94 1015.92 1015.87 1015.87 1016.02 1016.42 1017.10 1018.05 1019.19 1020.41 1021.54 1022.44 1023.00 1023.15 1022.90 1022.30 1021.49 1020.60 1019.76 1019.09 1018.63 1018.38 1018.30 1018.32 1018.34 1018.30 1018.17 1017.93 1017.64 1017.33 1017.09 1016.95 1016.95 1017.06 1017.27 1017.50 1017.71 1017.84 1017.87 1017.79 1017.65 1017.47 1017.31 1017.20
1015.97 1015.96 1015.94 1016.00 1016.24 1016.74 1017.51 1018.54 1019.75 1020.99 1022.11 1022.98 1023.48 1023.57 1023.25 1022.59 1021.72 1020.79 1019.94 1019.25 1018.80 1018.56 1018.51 1018.56 1018.61 1018.60 1018.49 1018.27 1017.97 1017.65 1017.38 1017.20 1017.15 1017.21 1017.37 1017.58 1017.78 1017.92 1017.97 1017.94 1017.83 1017.70 1017.56 1017.46
1015.98 1016.02 1016.07 1016.23 1016.56 1017.14 1017.98 1019.05 1020.27 1021.48 1022.56 1023.37 1023.81 1023.83 1023.45 1022.76 1021.87 1020.93 1020.07 1019.40 1018.95 1018.73 1018.70 1018.76 1018.83 1018.85 1018.76 1018.55 1018.26 1017.94 1017.64 1017.42 1017.32 1017.33 1017.45 1017.61 1017.79 1017.93 1018.00 1017.99 1017.93 1017.83 1017.72 1017.64
1015.90 1016.03 1016.19 1016.45 1016.88 1017.52 1018.40 1019.47 1020.64 1021.79 1022.80 1023.53 1023.90 1023.88 1023.48 1022.79 1021.91 1021.00 1020.18 1019.52 1019.09 1018.89 1018.85 1018.92 1019.00 1019.03 1018.96 1018.77 1018.50 1018.18 1017.87 1017.63 1017.49 1017.46 1017.52 1017.64 1017.78 1017.91 1017.99 1018.00 1017.97 1017.91 1017.83 1017.77
1015.71 1015.96 1016.25 1016.61 1017.12 1017.80 1018.67 1019.69 1020.79 1021.85 1022.75 1023.41 1023.73 1023.69 1023.31 1022.66 1021.85 1021.01 1020.24 1019.63 1019.22 1019.01 1018.97 1019.03 1019.10 1019.13 1019.07 1018.91 1018.66 1018.37 1018.07 1017.83 1017.67 1017.61 1017.63 1017.71 1017.83 1017.93 1018.00 1018.03 1018.02 1017.98 1017.93 1017.89
1015.41 1015.81 1016.21 1016.67 1017.23 1017.93 1018.75 1019.69 1020.68 1021.62 1022.42 1023.00 1023.29 1023.27 1022.95 1022.39 1021.68 1020.94 1020.26 1019.70 1019.32 1019.11 1019.05 1019.08 1019.13 1019.15 1019.10 1018.97 1018.76 1018.51 1018.25 1018.04 1017.89 1017.82 1017.82 1017.87 1017.96 1018.04 1018.10 1018.13 1018.13 1018.10 1018.07 1018.06
1015.08 1015.60 1016.12 1016.66 1017.25 1017.91 1018.67 1019.50 1020.35 1021.15 1021.85 1022.36 1022.64 1022.66 1022.43 1022.00 1021.44 1020.83 1020.25 1019.77 1019.41 1019.20 1019.11 1019.10 1019.11 1019.11 1019.07 1018.96 1018.80 1018.60 1018.41 1018.24 1018.13 1018.07 1018.08 1018.12 1018.19 1018.25 1018.30 1018.32 1018.32 1018.31 1018.29 1018.28
1014.80 1015.44 1016.04 1016.62 1017.21 1017.82 1018.47 1019.16 1019.86 1020.53 1021.12 1021.58 1021.86 1021.94 1021.83 1021.54 1021.14 1020.68 1020.22 1019.82 1019.50 1019.28 1019.16 1019.10 1019.07 1019.04 1018.99 1018.90 1018.79 1018.66 1018.54 1018.44 1018.38 1018.36 1018.38 1018.43 1018.49 1018.54 1018.58 1018.60 1018.59 1018.58 1018.57 1018.57
1014.68 1015.39 1016.05 1016.64 1017.19 1017.71 1018.23 1018.76 1019.30 1019.83 1020.31 1020.72 1021.01 1021.16 1021.18 1021.05 1020.81 1020.51 1020.18 1019.87 1019.59 1019.37 1019.21 1019.10 1019.02 1018.95 1018.89 1018.82 1018.75 1018.68 1018.62 1018.59 1018.58 1018.61 1018.66 1018.72 1018.79 1018.84 1018.88 1018.90 1018.90 1018.89 1018.88 1018.88
1014.78 1015.54 1016.20 1016.76 1017.23 1017.64 1018.01 1018.37 1018.74 1019.12 1019.50 1019.86 1020.16 1020.39 1020.52 1020.55 1020.48 1020.33 1020.13 1019.90 1019.67 1019.46 1019.27 1019.11 1018.99 1018.89 1018.80 1018.74 1018.69 1018.66 1018.65 1018.67 1018.71 1018.78 1018.85 1018.94 1019.02 1019.09 1019.14 1019.17 1019.18 1019.18 1019.18 1019.18
1015.11 1015.86 1016.49 1016.97 1017.33 1017.60 1017.81 1018.00 1018.20 1018.44 1018.72 1019.03 1019.34 1019.62 1019.86 1020.03 1020.11 1020.11 1020.04 1019.91 1019.73 1019.54 1019.34 1019.16 1018.99 1018.85 1018.75 1018.67 1018.62 1018.61 1018.62 1018.66 1018.73 1018.81 1018.91 1019.01 1019.11 1019.19 1019.27 1019.33 1019.37 1019.39 1019.41 1019.42
1015.59 1016.29 1016.83 1017.21 1017.44 1017.55 1017.59 1017.61 1017.67 1017.78 1017.96 1018.22 1018.53 1018.87 1019.20 1019.49 1019.71 1019.85 1019.90 1019.87 1019.76 1019.61 1019.42 1019.23 1019.04 1018.87 1018.73 1018.63 1018.56 1018.53 1018.53 1018.57 1018.63 1018.71 1018.80 1018.91 1019.02 1019.14 1019.24 1019.34 1019.43 1019.49 1019.55 1019.58
1016.08 1016.68 1017.11 1017.35 1017.44 1017.39 1017.28 1017.16 1017.07 1017.08 1017.19 1017.41 1017.73 1018.11 1018.52 1018.92 1019.26 1019.52 1019.70 1019.77 1019.75 1019.65 1019.51 1019.32 1019.13 1018.95 1018.78 1018.65 1018.54 1018.47 1018.42 1018.41 1018.44 1018.49 1018.56 1018.67 1018.79 1018.93 1019.08 1019.23 1019.36 1019.48 1019.58 1019.64
1016.39 1016.87 1017.17 1017.27 1017.22 1017.04 1016.80 1016.56 1016.39 1016.31 1016.38 1016.58 1016.91 1017.34 1017.82 1018.31 1018.76 1019.14 1019.43 1019.61 1019.69 1019.68 1019.59 1019.45 1019.28 1019.09 1018.91 1018.73 1018.58 1018.45 1018.34 1018.27 1018.23 1018.23 1018.27 1018.35 1018.48 1018.64 1018.83 1019.03 1019.23 1019.41 1019.55 1019.65
1016.37 1016.72 1016.89 1016.87 1016.70 1016.42 1016.10 1015.79 1015.57 1015.47 1015.52 1015.74 1016.10 1016.57 1017.12 1017.70 1018.25 1018.74 1019.13 1019.43 1019.61 1019.70 1019.69 1019.61 1019.48 1019.31 1019.12 1018.92 1018.72 1018.52 1018.35 1018.20 1018.09 1018.02 1018.02 1018.07 1018.19 1018.37 1018.59 1018.84 1019.09 1019.32 1019.52 1019.65
1015.92 1016.16 1016.21 1016.10 1015.85 1015.52 1015.17 1014.86 1014.65 1014.57 1014.66 1014.92 1015.34 1015.87 1016.49 1017.14 1017.78 1018.36 1018.87 1019.27 1019.56 1019.74 1019.83 1019.82 1019.75 1019.61 1019.43 1019.22 1018.98 1018.73 1018.49 1018.27 1018.09 1017.96 1017.91 1017.94 1018.04 1018.23 1018.47 1018.75 1019.04 1019.31 1019.54 1019.70
1015.03 1015.17 1015.15 1014.99 1014.73 1014.41 1014.09 1013.83 1013.69 1013.69 1013.87 1014.20 1014.69 1015.30 1015.99 1016.71 1017.43 1018.09 1018.69 1019.18 1019.57 1019.85 1020.03 1020.10 1020.09 1020.00 1019.85 1019.63 1019.38 1019.09 1018.80 1018.53 1018.29 1018.12 1018.03 1018.02 1018.11 1018.29 1018.54 1018.83 1019.14 1019.42 1019.66 1019.83
1013.77 1013.87 1013.82 1013.66 1013.43 1013.18 1012.95 1012.81 1012.79 1012.92 1013.21 1013.66 1014.24 1014.93 1015.69 1016.48 1017.26 1017.99 1018.65 1019.22 1019.69 1020.06 1020.31 1020.47 1020.52 1020.48 1020.36 1020.16 1019.91 1019.61 1019.30 1018.99 1018.73 1018.52 1018.40 1018.37 1018.44 1018.61 1018.85 1019.13 1019.43 1019.70 1019.92 1020.07
1012.31 1012.38 1012.35 1012.24 1012.10 1011.97 1011.89 1011.91 1012.06 1012.35 1012.78 1013.35 1014.04 1014.82 1015.64 1016.48 1017.31 1018.08 1018.79 1019.42 1019.95 1020.37 1020.69 1020.91 1021.02 1021.03 1020.95 1020.78 1020.55 1020.26 1019.95 1019.64 1019.37 1019.15 1019.02 1018.98 1019.04 1019.18 1019.40 1019.65 1019.91 1020.15 1020.33 1020.43
1010.81 1010.90 1010.92 1010.91 1010.89 1010.92 1011.02 1011.23 1011.56 1012.02 1012.61 1013.31 1014.10 1014.95 1015.83 1016.71 1017.57 1018.37 1019.10 1019.75 1020.32 1020.79 1021.15 1021.41 1021.57 1021.62 1021.58 1021.45 1021.25 1020.99 1020.70 1020.41 1020.16 1019.96 1019.83 1019.79 1019.84 1019.96 1020.15 1020.36 1020.56 1020.74 1020.86 1020.90
Thickness
5749 5733 5725 5731 5736 5735 5732 5726 5722 5729 5745 5738 5729 5728 5736 5743 5742 5739 5738 5738 5738 5740 5743 5744 5742 5740 5737 5735 5732 5730 5727 5725 5722 5719 5716 5713 5710 5710 5710 5710 5709 5708 5707 5706
5727 5723 5737 5743 5742 5737 5730 5722 5721 5729 5741 5735 5725 5726 5734 5740 5740 5741 5739 5738 5738 5738 5738 5738 5738 5737 5734 5732 5730 5728 5726 5723 5721 5718 5716 5713 5710 5708 5708 5707 5706 5706 5705 5704
5719 5730 5744 5740 5733 5729 5726 5720 5720 5721 5729 5731 5722 5715 5724 5734 5739 5741 5741 5740 5740 5739 5737 5736 5735 5734 5732 5730 5729 5728 5725 5722 5720 5718 5714 5711 5707 5705 5703 5702 5702 5702 5702 5702
5723 5735 5736 5730 5727 5726 5715 5729 5727 5722 5710 5701 5711 5689 5710 5722 5726 5732 5734 5735 5736 5738 5738 5737 5735 5732 5732 5731 5730 5727 5724 5721 5719 5717 5713 5708 5703 5699 5699 5699 5700 5700 5700 5700
5718 5729 5727 5722 5726 5729 5722 5731 5725 5719 5708 5697 5701 5688 5698 5714 5714 5724 5730 5734 5735 5737 5737 5736 5736 5735 5733 5731 5729 5726 5723 5720 5718 5716 5713 5708 5703 5701 5699 5698 5698 5697 5697 5697
5721 5731 5729 5727 5732 5732 5728 5720 5712 5702 5693 5680 5694 5685 5689 5703 5715 5723 5730 5732 5734 5735 5736 5736 5735 5733 5731 5729 5726 5724 5720 5717 5716 5714 5711 5708 5703 5700 5697 5695 5694 5694 5694 5694
5705 5716 5725 5729 5718 5720 5714 5692 5672 5670 5665 5672 5693 5687 5692 5715 5725 5728 5729 5730 5733 5734 5733 5731 5730 5728 5727 5726 5724 5722 5719 5715 5714 5712 5709 5707 5704 5701 5697 5695 5693 5692 5691 5691
5682 5686 5709 5716 5710 5702 5701 5690 5666 5658 5658 5668 5685 5682 5699 5722 5729 5731 5731 5730 5731 5730 5730 5730 5729 5728 5726 5725 5723 5720 5717 5714 5712 5710 5707 5706 5704 5701 5698 5696 5694 5692 5691 5691
5674 5679 5706 5714 5715 5707 5694 5684 5686 5669 5667 5661 5670 5685 5702 5716 5718 5721 5722 5723 5724 5727 5729 5729 5728 5727 5725 5723 5722 5720 5716 5713 5710 5708 5706 5704 5702 5700 5697 5696 5694 5693 5691 5691
5680 5673 5690 5703 5707 5703 5697 5688 5671 5662 5651 5647 5663 5672 5679 5695 5701 5710 5714 5716 5719 5723 5725 5726 5725 5724 5724 5722 5721 5719 5716 5712 5709 5707 5705 5704 5701 5700 5698 5695 5693 5692 5691 5691
5677 5666 5672 5683 5681 5679 5681 5677 5667 5656 5653 5644 5644 5663 5696 5696 5701 5705 5710 5714 5716 5718 5720 5721 5721 5722 5721 5720 5718 5716 5713 5710 5707 5706 5704 5702 5700 5698 5696 5694 5692 5692 5691 5690
5670 5656 5652 5666 5682 5688 5681 5673 5662 5648 5647 5646 5642 5659 5702 5701 5703 5704 5706 5710 5713 5715 5717 5718 5717 5716 5715 5714 5713 5713 5711 5708 5706 5704 5702 5700 5698 5696 5694 5692 5691 5691 5690 5689
5665 5650 5640 5647 5657 5669 5669 5669 5663 5652 5642 5638 5637 5658 5695 5695 5696 5699 5701 5703 5706 5709 5711 5711 5711 5711 5710 5709 5709 5709 5708 5706 5704 5702 5700 5697 5695 5694 5692 5691 5690 5689 5689 5688
5664 5645 5637 5635 5643 5652 5655 5661 5661 5649 5635 5636 5644 5658 5676 5681 5686 5690 5694 5697 5700 5703 5704 5705 5705 5705 5706 5706 5706 5705 5703 5703 5702 5700 5698 5695 5694 5693 5691 5690 5689 5687 5687 5685
5652 5638 5642 5646 5653 5654 5654 5656 5657 5651 5646 5641 5649 5655 5667 5675 5681 5686 5689 5691 5694 5696 5698 5700 5700 5700 5701 5701 5701 5701 5700 5699 5699 5697 5694 5693 5693 5692 5690 5689 5687 5686 5684 5684
5639 5633 5636 5638 5648 5648 5648 5654 5655 5654 5654 5651 5653 5656 5672 5676 5678 5680 5683 5685 5687 5689 5694 5696 5696 5696 5697 5697 5698 5697 5696 5697 5696 5694 5692 5692 5691 5689 5688 5686 5685 5683 5682 5681
5627 5624 5619 5618 5632 5636 5633 5648 5651 5652 5656 5653 5648 5657 5668 5668 5672 5675 5678 5681 5682 5685 5689 5692 5693 5694 5694 5695 5696 5695 5695 5694 5693 5691 5690 5689 5688 5686 5685 5684 5682 5680 5678 5677
5622 5616 5608 5608 5615 5611 5637 5656 5657 5653 5655 5656 5657 5661 5665 5668 5672 5676 5677 5677 5679 5683 5685 5687 5689 5690 5692 5693 5694 5694 5693 5691 5690 5688 5687 5687 5685 5684 5682 5680 5678 5677 5675 5674
5625 5614 5603 5599 5600 5614 5637 5649 5650 5645 5645 5652 5652 5655 5660 5664 5665 5667 5675 5677 5679 5682 5684 5685 5687 5688 5689 5690 5691 5690 5688 5687 5686 5684 5685 5684 5683 5681 5679 5677 5676 5674 5672 5671
5619 5612 5601 5596 5597 5603 5628 5646 5652 5645 5635 5649 5650 5649 5651 5653 5644 5654 5669 5673 5676 5680 5683 5684 5685 5685 5684 5686 5686 5685 5683 5682 5682 5682 5683 5683 5682 5680 5678 5676 5674 5672 5670 5669
5604 5600 5595 5593 5594 5608 5632 5642 5643 5623 5627 5644 5646 5646 5647 5645 5648 5658 5665 5668 5671 5676 5679 5681 5681 5680 5681 5681 5681 5679 5679 5679 5680 5681 5680 5679 5678 5677 5676 5674 5672 5670 5668 5665
5596 5592 5590 5589 5589 5603 5632 5633 5625 5626 5637 5640 5642 5643 5644 5646 5651 5655 5659 5662 5665 5669 5673 5676 5675 5675 5676 5676 5676 5675 5675 5677 5678 5677 5676 5675 5674 5674 5673 5670 5668 5666 5664 5661
5595 5597 5595 5597 5604 5619 5626 5627 5631 5632 5632 5635 5637 5640 5641 5642 5644 5648 5652 5656 5659 5664 5667 5669 5670 5670 5671 5672 5672 5671 5673 5674 5673 5672 5671 5671 5670 5670 5669 5667 5664 5662 5660 5657
5593 5599 5595 5595 5605 5614 5619 5623 5627 5629 5629 5632 5634 5636 5638 5638 5641 5642 5646 5649 5652 5657 5660 5662 5663 5663 5664 5666 5667 5668 5669 5670 5668 5667 5666 5666 5665 5665 5664 5663 5661 5659 5657 5654
5586 5589 5587 5589 5598 5605 5612 5615 5618 5622 5625 5627 5630 5632 5633 5635 5636 5639 5642 5645 5648 5651 5653 5656 5657 5658 5659 5661 5661 5663 5664 5664 5662 5661 5661 5660 5660 5660 5659 5658 5657 5657 5656 5656
5583 5583 5581 5585 5595 5596 5603 5611 5614 5615 5618 5621 5622 5625 5628 5631 5633 5635 5638 5641 5644 5646 5648 5650 5652 5653 5655 5655 5656 5658 5660 5660 5658 5656 5656 5655 5655 5655 5654 5652 5651 5651 5651 5652